VTK601 URMM-UZTT

Flight info

Callsign VTK601
Flight time N/A
Altitude 35000
Route OGEMO5M OGEMO B967 ROKMO R710 UP A102 BABUR N102 KORAG N144 EKDUP N193 DIBAD DIBAD2T
Aircraft MD11/H-SDE1E2E3FGHIJ2J3J4J5M1RWXY/LB1D1

Departure

Time 2026-04-16 10:06
Airport Mineralnye Vody Airport (URMM)

Arrival

Time N/A
Airport Tashkent International Airport (UZTT)
Time Latitude Longitude Altitude Speed Heading
2026-04-16 09:48 44.21763 43.09373 1058 ft 0 kts 212°
2026-04-16 09:56 44.21742 43.09357 1060 ft 8 kts 205°
2026-04-16 09:56 44.21665 43.09379 1059 ft 16 kts 136°
2026-04-16 09:57 44.21586 43.09541 1058 ft 24 kts 122°
2026-04-16 09:57 44.21554 43.09613 1058 ft 0 kts 121°
2026-04-16 09:57 44.21543 43.09639 1059 ft 9 kts 121°
2026-04-16 09:58 44.21517 43.09771 1060 ft 20 kts 88°
2026-04-16 09:58 44.21548 43.10007 1059 ft 28 kts 78°
2026-04-16 09:58 44.21621 43.10232 1060 ft 25 kts 41°
2026-04-16 09:58 44.21731 43.10315 1058 ft 8 kts 360°
2026-04-16 09:59 44.21766 43.10293 1059 ft 3 kts 323°
2026-04-16 09:59 44.21788 43.10258 1060 ft 7 kts 305°
2026-04-16 09:59 44.21793 43.10249 1060 ft 0 kts 304°
2026-04-16 10:05 44.21801 43.10232 1060 ft 15 kts 303°
2026-04-16 10:05 44.22005 43.09783 1063 ft 94 kts 302°
2026-04-16 10:05 44.22482 43.08731 1063 ft 160 kts 302°
2026-04-16 10:06 44.23115 43.07343 1527 ft 172 kts 301°
2026-04-16 10:06 44.23745 43.05946 2459 ft 171 kts 301°
2026-04-16 10:06 44.24369 43.04520 3276 ft 174 kts 301°
2026-04-16 10:06 44.25012 43.03074 4067 ft 177 kts 302°
2026-04-16 10:07 44.25697 43.01568 4598 ft 198 kts 302°
2026-04-16 10:07 44.26486 42.99831 4761 ft 225 kts 302°
2026-04-16 10:07 44.27362 42.97897 4932 ft 245 kts 302°
2026-04-16 10:07 44.28282 42.95862 5316 ft 249 kts 302°
2026-04-16 10:08 44.29221 42.93812 5857 ft 251 kts 304°
2026-04-16 10:08 44.30377 42.91953 6581 ft 262 kts 320°
2026-04-16 10:08 44.32015 42.90802 7394 ft 270 kts 345°
2026-04-16 10:08 44.33905 42.90788 8219 ft 280 kts 11°
2026-04-16 10:09 44.35640 42.92066 9055 ft 290 kts 41°
2026-04-16 10:09 44.36735 42.94403 9853 ft 298 kts 72°
2026-04-16 10:09 44.36897 42.97311 10430 ft 313 kts 99°
2026-04-16 10:09 44.36221 43.00319 10571 ft 339 kts 114°
2026-04-16 10:10 44.35146 43.03380 10728 ft 364 kts 118°
2026-04-16 10:10 44.33953 43.06529 11415 ft 370 kts 118°
2026-04-16 10:10 44.32754 43.09726 12217 ft 373 kts 117°
2026-04-16 10:10 44.31567 43.12975 13006 ft 377 kts 117°
2026-04-16 10:11 44.30397 43.16275 13753 ft 381 kts 115°
2026-04-16 10:11 44.29427 43.19719 14470 ft 382 kts 104°
2026-04-16 10:11 44.29101 43.23389 15148 ft 383 kts 87°
2026-04-16 10:11 44.29661 43.27015 15798 ft 385 kts 68°
2026-04-16 10:12 44.30938 43.30323 16389 ft 389 kts 57°
2026-04-16 10:12 44.32505 43.33427 16957 ft 394 kts 54°
2026-04-16 10:12 44.34159 43.36506 17533 ft 398 kts 54°
2026-04-16 10:12 44.35822 43.39623 18100 ft 402 kts 54°
2026-04-16 10:13 44.37477 43.42801 18613 ft 406 kts 56°
2026-04-16 10:13 44.39121 43.46031 19120 ft 409 kts 56°
2026-04-16 10:13 44.40755 43.49293 19643 ft 411 kts 56°
2026-04-16 10:13 44.42385 43.52583 20115 ft 413 kts 56°
2026-04-16 10:14 44.44021 43.55903 20628 ft 415 kts 56°
2026-04-16 10:14 44.45661 43.59239 21107 ft 418 kts 57°
2026-04-16 10:14 44.46752 43.61466 21428 ft 419 kts 57°
2026-04-16 10:14 44.48356 43.64878 21916 ft 421 kts 59°
2026-04-16 10:15 44.49882 43.68386 22426 ft 423 kts 60°
2026-04-16 10:15 44.51377 43.71952 22917 ft 426 kts 60°
2026-04-16 10:15 44.52869 43.75552 23445 ft 429 kts 61°
2026-04-16 10:15 44.54370 43.79178 23943 ft 431 kts 60°
2026-04-16 10:16 44.55882 43.82821 24345 ft 434 kts 60°
2026-04-16 10:16 44.57408 43.86488 24776 ft 437 kts 60°
2026-04-16 10:16 44.58944 43.90179 25238 ft 440 kts 60°
2026-04-16 10:16 44.60490 43.93891 25687 ft 442 kts 61°
2026-04-16 10:17 44.62046 43.97632 26135 ft 445 kts 60°
2026-04-16 10:17 44.63610 44.01397 26590 ft 448 kts 60°
2026-04-16 10:17 44.65185 44.05191 27036 ft 451 kts 60°
2026-04-16 10:17 44.66765 44.09005 27460 ft 454 kts 60°
2026-04-16 10:18 44.68357 44.12852 27901 ft 456 kts 60°
2026-04-16 10:18 44.69956 44.16720 28309 ft 459 kts 60°
2026-04-16 10:18 44.71564 44.20617 28726 ft 462 kts 61°
2026-04-16 10:18 44.73180 44.24539 29148 ft 465 kts 60°
2026-04-16 10:19 44.74805 44.28487 29560 ft 468 kts 61°
2026-04-16 10:19 44.76438 44.32457 29946 ft 470 kts 61°
2026-04-16 10:19 44.78079 44.36456 30295 ft 473 kts 61°
2026-04-16 10:19 44.79727 44.40479 30605 ft 476 kts 60°
2026-04-16 10:20 44.81381 44.44518 30950 ft 476 kts 60°
2026-04-16 10:20 44.83034 44.48545 31339 ft 475 kts 59°
2026-04-16 10:20 44.84795 44.52409 31745 ft 474 kts 56°
2026-04-16 10:20 44.86715 44.56181 32146 ft 473 kts 54°
2026-04-16 10:21 44.88698 44.59876 32541 ft 472 kts 53°
2026-04-16 10:21 44.90701 44.63543 32926 ft 471 kts 52°
2026-04-16 10:21 44.92699 44.67204 33292 ft 470 kts 53°
2026-04-16 10:21 44.94686 44.70867 33618 ft 470 kts 53°
2026-04-16 10:22 44.96661 44.74536 33947 ft 469 kts 53°
2026-04-16 10:22 44.98630 44.78213 34272 ft 469 kts 53°
2026-04-16 10:22 45.00593 44.81891 34509 ft 469 kts 53°
2026-04-16 10:22 45.02552 44.85572 34745 ft 469 kts 53°
2026-04-16 10:23 45.04510 44.89258 34969 ft 469 kts 53°
2026-04-16 10:23 45.06470 44.92946 35145 ft 470 kts 53°
2026-04-16 10:23 45.10405 45.00371 35181 ft 472 kts 53°
2026-04-16 10:24 45.14341 45.07813 35182 ft 472 kts 53°
2026-04-16 10:24 45.18270 45.15266 35183 ft 472 kts 53°
2026-04-16 10:25 45.22144 45.22781 35183 ft 473 kts 56°
2026-04-16 10:25 45.25537 45.30791 35184 ft 474 kts 60°
2026-04-16 10:26 45.28738 45.38970 35181 ft 473 kts 61°
2026-04-16 10:26 45.31924 45.47159 35181 ft 473 kts 60°
2026-04-16 10:27 45.35133 45.55338 35181 ft 474 kts 60°
2026-04-16 10:27 45.38349 45.63523 35179 ft 474 kts 60°
2026-04-16 10:28 45.41561 45.71712 35181 ft 474 kts 60°
2026-04-16 10:28 45.44746 45.79861 35179 ft 474 kts 60°
2026-04-16 10:29 45.47948 45.88084 35173 ft 475 kts 60°
2026-04-16 10:29 45.51146 45.96317 35173 ft 474 kts 60°
2026-04-16 10:30 45.54338 46.04559 35170 ft 475 kts 60°
2026-04-16 10:30 45.57523 46.12810 35172 ft 475 kts 60°
2026-04-16 10:31 45.60708 46.21083 35171 ft 476 kts 60°
2026-04-16 10:31 45.63890 46.29376 35165 ft 476 kts 60°
2026-04-16 10:32 45.67066 46.37676 35164 ft 476 kts 60°
2026-04-16 10:32 45.70186 46.45947 35166 ft 476 kts 60°
2026-04-16 10:33 45.73324 46.54289 35164 ft 476 kts 60°
2026-04-16 10:33 45.76463 46.62629 35165 ft 476 kts 60°
2026-04-16 10:34 45.79603 46.70970 35169 ft 476 kts 60°
2026-04-16 10:34 45.82737 46.79323 35165 ft 475 kts 60°
2026-04-16 10:35 45.85857 46.87667 35165 ft 475 kts 60°
2026-04-16 10:35 45.88902 46.96081 35165 ft 475 kts 64°
2026-04-16 10:36 45.90859 47.05131 35162 ft 477 kts 81°
2026-04-16 10:36 45.90791 47.14641 35162 ft 479 kts 99°
2026-04-16 10:37 45.89082 47.23907 35161 ft 481 kts 107°
2026-04-16 10:37 45.87004 47.33031 35159 ft 481 kts 107°
2026-04-16 10:38 45.84983 47.42193 35163 ft 482 kts 107°
2026-04-16 10:38 45.83019 47.51402 35160 ft 483 kts 106°
2026-04-16 10:39 45.81067 47.60607 35156 ft 482 kts 106°
2026-04-16 10:39 45.79118 47.69746 35154 ft 482 kts 106°
2026-04-16 10:40 45.77146 47.78943 35158 ft 483 kts 106°
2026-04-16 10:40 45.75162 47.88145 35165 ft 484 kts 106°
2026-04-16 10:41 45.73169 47.97346 35155 ft 484 kts 106°
2026-04-16 10:41 45.71170 48.06543 35152 ft 484 kts 106°
2026-04-16 10:42 45.69162 48.15739 35160 ft 484 kts 107°
2026-04-16 10:42 45.67149 48.24916 35148 ft 484 kts 107°
2026-04-16 10:43 45.65117 48.34091 35157 ft 484 kts 107°
2026-04-16 10:43 45.63048 48.43253 35150 ft 484 kts 107°
2026-04-16 10:44 45.61007 48.52345 35143 ft 484 kts 107°
2026-04-16 10:44 45.58961 48.61504 35136 ft 484 kts 107°
2026-04-16 10:45 45.56909 48.70659 35144 ft 484 kts 107°
2026-04-16 10:45 45.54847 48.79818 35144 ft 484 kts 107°
2026-04-16 10:46 45.52782 48.88959 35142 ft 484 kts 107°
2026-04-16 10:46 45.50710 48.98091 35137 ft 485 kts 107°
2026-04-16 10:47 45.48625 49.07225 35140 ft 484 kts 107°
2026-04-16 10:47 45.46545 49.16308 35141 ft 485 kts 107°
2026-04-16 10:48 45.44446 49.25428 35136 ft 485 kts 107°
2026-04-16 10:48 45.42339 49.34552 35143 ft 485 kts 107°
2026-04-16 10:49 45.40223 49.43675 35138 ft 485 kts 107°
2026-04-16 10:49 45.38131 49.52802 35133 ft 485 kts 105°
2026-04-16 10:50 45.36243 49.62010 35130 ft 485 kts 104°
2026-04-16 10:50 45.34413 49.71223 35127 ft 485 kts 104°
2026-04-16 10:51 45.32574 49.80401 35129 ft 486 kts 104°
2026-04-16 10:51 45.30706 49.89624 35133 ft 486 kts 105°
2026-04-16 10:52 45.28828 49.98838 35129 ft 486 kts 105°
2026-04-16 10:52 45.26942 50.08050 35127 ft 486 kts 105°
2026-04-16 10:53 45.25048 50.17252 35130 ft 486 kts 105°
2026-04-16 10:53 45.23147 50.26466 35120 ft 486 kts 105°
2026-04-16 10:54 45.21239 50.35668 35124 ft 486 kts 105°
2026-04-16 10:54 45.19321 50.44870 35114 ft 487 kts 105°
2026-04-16 10:55 45.17392 50.54072 35116 ft 488 kts 105°
2026-04-16 10:55 45.15462 50.63217 35114 ft 488 kts 105°
2026-04-16 10:56 45.13481 50.72407 35111 ft 488 kts 105°
2026-04-16 10:56 45.11509 50.81602 35104 ft 488 kts 105°
2026-04-16 10:57 45.09544 50.90797 35107 ft 488 kts 105°
2026-04-16 10:57 45.07575 51.00001 35105 ft 489 kts 105°
2026-04-16 10:58 45.05594 51.09211 35100 ft 489 kts 105°
2026-04-16 10:58 45.03603 51.18419 35097 ft 489 kts 105°
2026-04-16 10:59 45.01608 51.27615 35095 ft 489 kts 105°
2026-04-16 10:59 44.99603 51.36816 35094 ft 490 kts 105°
2026-04-16 11:00 44.97586 51.46023 35088 ft 491 kts 105°
2026-04-16 11:00 44.95561 51.55228 35085 ft 490 kts 105°
2026-04-16 11:01 44.93530 51.64422 35083 ft 491 kts 105°
2026-04-16 11:01 44.91494 51.73611 35076 ft 491 kts 106°
2026-04-16 11:02 44.89424 51.82727 35075 ft 491 kts 106°
2026-04-16 11:02 44.87343 51.91901 35075 ft 492 kts 106°
2026-04-16 11:03 44.85273 52.01091 35072 ft 492 kts 106°
2026-04-16 11:04 44.82163 52.14866 35068 ft 492 kts 106°
2026-04-16 11:04 44.80060 52.24034 35064 ft 492 kts 106°
2026-04-16 11:05 44.77952 52.33196 35066 ft 492 kts 106°
2026-04-16 11:05 44.75843 52.42361 35064 ft 492 kts 106°
2026-04-16 11:06 44.73731 52.51517 35065 ft 492 kts 106°
2026-04-16 11:06 44.71965 52.59137 35064 ft 493 kts 107°
2026-04-16 11:07 44.69837 52.68285 35063 ft 492 kts 107°
2026-04-16 11:07 44.67701 52.77435 35060 ft 493 kts 107°
2026-04-16 11:08 44.65555 52.86574 35058 ft 493 kts 107°
2026-04-16 11:08 44.63399 52.95716 35051 ft 493 kts 107°
2026-04-16 11:09 44.61236 53.04862 35051 ft 493 kts 107°
2026-04-16 11:09 44.59068 53.13992 35048 ft 493 kts 107°
2026-04-16 11:10 44.56893 53.23112 35043 ft 493 kts 107°
2026-04-16 11:10 44.54676 53.32221 35046 ft 494 kts 108°
2026-04-16 11:11 44.52471 53.41272 35040 ft 494 kts 107°
2026-04-16 11:11 44.50263 53.50383 35038 ft 493 kts 107°
2026-04-16 11:12 44.48056 53.59488 35035 ft 493 kts 107°
2026-04-16 11:12 44.45841 53.68594 35035 ft 494 kts 108°
2026-04-16 11:13 44.43618 53.77689 35034 ft 494 kts 108°
2026-04-16 11:13 44.41387 53.86788 35030 ft 494 kts 108°
2026-04-16 11:14 44.39147 53.95871 35031 ft 494 kts 108°
2026-04-16 11:14 44.36898 54.04963 35038 ft 494 kts 108°
2026-04-16 11:15 44.34643 54.14042 35028 ft 495 kts 108°
2026-04-16 11:15 44.32394 54.23064 35027 ft 495 kts 108°
2026-04-16 11:16 44.30125 54.32128 35026 ft 495 kts 108°
2026-04-16 11:16 44.27819 54.41179 35026 ft 495 kts 109°
2026-04-16 11:17 44.25502 54.50239 35024 ft 496 kts 109°
2026-04-16 11:17 44.23198 54.59303 35024 ft 496 kts 109°
2026-04-16 11:18 44.20897 54.68356 35017 ft 496 kts 109°
2026-04-16 11:18 44.18586 54.77412 35013 ft 496 kts 109°
2026-04-16 11:19 44.16268 54.86466 35017 ft 496 kts 109°
2026-04-16 11:19 44.13938 54.95518 35012 ft 496 kts 109°
2026-04-16 11:20 44.11602 55.04561 35012 ft 497 kts 109°
2026-04-16 11:20 44.09273 55.13541 35008 ft 497 kts 109°
2026-04-16 11:21 44.06923 55.22574 35004 ft 497 kts 109°
2026-04-16 11:21 44.04563 55.31614 35004 ft 497 kts 109°
2026-04-16 11:22 44.02194 55.40641 35004 ft 497 kts 109°
2026-04-16 11:22 43.99795 55.49646 35016 ft 497 kts 110°
2026-04-16 11:23 43.97380 55.58661 35001 ft 498 kts 110°
2026-04-16 11:23 43.94976 55.67688 34996 ft 498 kts 110°
2026-04-16 11:24 43.92575 55.76705 34996 ft 498 kts 110°
2026-04-16 11:24 43.90169 55.85714 34988 ft 498 kts 110°
2026-04-16 11:25 43.87572 55.94619 34990 ft 498 kts 114°
2026-04-16 11:25 43.84547 56.03267 34990 ft 499 kts 116°
2026-04-16 11:26 43.81469 56.11808 34990 ft 499 kts 116°
2026-04-16 11:26 43.78396 56.20415 34982 ft 499 kts 116°
2026-04-16 11:27 43.75334 56.29045 34990 ft 500 kts 116°
2026-04-16 11:27 43.72264 56.37684 34985 ft 500 kts 116°
2026-04-16 11:28 43.69189 56.46304 34981 ft 500 kts 116°
2026-04-16 11:28 43.66105 56.54923 34981 ft 500 kts 116°
2026-04-16 11:29 43.63011 56.63533 34983 ft 501 kts 116°
2026-04-16 11:29 43.59930 56.72086 34978 ft 501 kts 116°
2026-04-16 11:30 43.56819 56.80696 34980 ft 501 kts 116°
2026-04-16 11:30 43.53705 56.89286 34980 ft 502 kts 116°
2026-04-16 11:31 43.50565 56.97872 34970 ft 502 kts 117°
2026-04-16 11:31 43.47402 57.06442 34980 ft 502 kts 117°
2026-04-16 11:32 43.44253 57.15022 34971 ft 503 kts 117°
2026-04-16 11:32 43.41098 57.23616 34969 ft 504 kts 117°
2026-04-16 11:33 43.37952 57.32160 34974 ft 504 kts 117°
2026-04-16 11:33 43.34780 57.40749 34965 ft 503 kts 117°
2026-04-16 11:34 43.31602 57.49325 34961 ft 504 kts 117°
2026-04-16 11:34 43.28414 57.57907 34965 ft 504 kts 117°
2026-04-16 11:35 43.25221 57.66477 34969 ft 504 kts 117°
2026-04-16 11:35 43.22020 57.75039 34961 ft 504 kts 117°
2026-04-16 11:36 43.18811 57.83597 34960 ft 505 kts 117°
2026-04-16 11:36 43.15590 57.92161 34969 ft 506 kts 117°
2026-04-16 11:37 43.12331 58.00732 34962 ft 508 kts 118°
2026-04-16 11:37 43.09061 58.09288 34949 ft 508 kts 118°
2026-04-16 11:38 43.05795 58.17867 34951 ft 508 kts 118°
2026-04-16 11:38 43.02531 58.26434 34951 ft 508 kts 118°
2026-04-16 11:39 42.99283 58.34944 34951 ft 508 kts 118°
2026-04-16 11:39 42.95982 58.43562 34944 ft 509 kts 118°
2026-04-16 11:40 42.92690 58.52131 34945 ft 510 kts 118°
2026-04-16 11:40 42.89395 58.60683 34946 ft 509 kts 118°
2026-04-16 11:41 42.86092 58.69229 34952 ft 509 kts 118°
2026-04-16 11:41 42.82797 58.77730 34941 ft 511 kts 118°
2026-04-16 11:42 42.79468 58.86286 34943 ft 512 kts 119°
2026-04-16 11:42 42.76437 58.95033 34938 ft 512 kts 108°
2026-04-16 11:43 42.74823 59.04460 34935 ft 512 kts 99°
2026-04-16 11:43 42.73600 59.14013 34933 ft 513 kts 100°
2026-04-16 11:44 42.72253 59.23530 34928 ft 512 kts 101°
2026-04-16 11:44 42.70809 59.33022 34932 ft 514 kts 101°
2026-04-16 11:45 42.69330 59.42542 34915 ft 515 kts 101°
2026-04-16 11:45 42.67847 59.52077 34917 ft 517 kts 102°
2026-04-16 11:46 42.66359 59.61627 34917 ft 516 kts 102°
2026-04-16 11:46 42.64866 59.71161 34916 ft 516 kts 102°
2026-04-16 11:47 42.63363 59.80699 34919 ft 517 kts 102°
2026-04-16 11:47 42.61847 59.90254 34917 ft 518 kts 102°
2026-04-16 11:48 42.60320 59.99821 34912 ft 519 kts 102°
2026-04-16 11:48 42.58785 60.09385 34910 ft 519 kts 102°
2026-04-16 11:49 42.57241 60.18944 34912 ft 519 kts 102°
2026-04-16 11:49 42.55655 60.28487 34912 ft 519 kts 103°
2026-04-16 11:50 42.54083 60.37978 34899 ft 519 kts 103°
2026-04-16 11:50 42.52507 60.47539 34905 ft 519 kts 103°
2026-04-16 11:51 42.50933 60.57088 34906 ft 519 kts 103°
2026-04-16 11:51 42.49354 60.66638 34905 ft 519 kts 103°
2026-04-16 11:52 42.47762 60.76182 34921 ft 519 kts 103°
2026-04-16 11:52 42.46157 60.85734 34906 ft 522 kts 103°
2026-04-16 11:53 42.44541 60.95320 34907 ft 522 kts 103°
2026-04-16 11:53 42.42918 61.04901 34903 ft 522 kts 103°
2026-04-16 11:54 42.41283 61.14483 34905 ft 522 kts 103°
2026-04-16 11:54 42.39640 61.24059 34892 ft 522 kts 103°
2026-04-16 11:55 42.37971 61.33635 34906 ft 523 kts 104°
2026-04-16 11:55 42.36289 61.43148 34907 ft 524 kts 104°
2026-04-16 11:56 42.34604 61.52734 34903 ft 524 kts 104°
2026-04-16 11:56 42.32928 61.62309 34904 ft 524 kts 104°
2026-04-16 11:57 42.31245 61.71881 34903 ft 524 kts 104°
2026-04-16 11:57 42.29836 61.79850 34913 ft 524 kts 104°
2026-04-16 11:58 42.28135 61.89415 34911 ft 524 kts 104°
2026-04-16 11:58 42.26423 61.98982 34915 ft 524 kts 104°
2026-04-16 11:59 42.24704 62.08551 34913 ft 524 kts 104°
2026-04-16 11:59 42.22979 62.18102 34915 ft 524 kts 105°
2026-04-16 12:00 42.21247 62.27647 34924 ft 523 kts 105°
2026-04-16 12:00 42.19507 62.37176 34928 ft 523 kts 105°
2026-04-16 12:01 42.17726 62.46700 34933 ft 524 kts 106°
2026-04-16 12:01 42.15946 62.56212 34910 ft 523 kts 106°
2026-04-16 12:02 42.13296 62.70476 34937 ft 522 kts 106°
2026-04-16 12:02 42.11544 62.79910 34940 ft 523 kts 106°
2026-04-16 12:03 42.09820 62.89423 34944 ft 523 kts 106°
2026-04-16 12:03 42.08111 62.98944 34946 ft 523 kts 106°
2026-04-16 12:04 42.06340 63.08441 34948 ft 523 kts 107°
2026-04-16 12:04 42.04534 63.17926 34951 ft 523 kts 107°
2026-04-16 12:05 42.02723 63.27406 34953 ft 523 kts 107°
2026-04-16 12:05 42.00913 63.36873 34959 ft 523 kts 107°
2026-04-16 12:06 41.99094 63.46332 34965 ft 522 kts 107°
2026-04-16 12:06 41.97269 63.55779 34965 ft 523 kts 107°
2026-04-16 12:07 41.95432 63.65239 34959 ft 523 kts 107°
2026-04-16 12:07 41.93591 63.74689 34962 ft 522 kts 108°
2026-04-16 12:08 41.91744 63.84110 34961 ft 522 kts 108°
2026-04-16 12:08 41.89888 63.93538 34962 ft 522 kts 108°
2026-04-16 12:09 41.88020 64.02969 34966 ft 523 kts 108°
2026-04-16 12:09 41.86130 64.12370 34963 ft 521 kts 108°
2026-04-16 12:10 41.84228 64.21734 34974 ft 520 kts 108°
2026-04-16 12:10 41.82339 64.31108 34955 ft 520 kts 108°
2026-04-16 12:11 41.80448 64.40488 34981 ft 522 kts 109°
2026-04-16 12:11 41.78561 64.49812 34974 ft 521 kts 109°
2026-04-16 12:12 41.76659 64.59182 34981 ft 521 kts 109°
2026-04-16 12:12 41.74972 64.68637 34978 ft 524 kts 104°
2026-04-16 12:13 41.73708 64.78250 34972 ft 525 kts 102°
2026-04-16 12:13 41.72508 64.87894 34982 ft 525 kts 103°
2026-04-16 12:14 41.71267 64.97520 34990 ft 525 kts 103°
2026-04-16 12:14 41.69997 65.07128 34985 ft 523 kts 103°
2026-04-16 12:15 41.68715 65.16717 34989 ft 524 kts 103°
2026-04-16 12:15 41.67435 65.26252 34982 ft 524 kts 103°
2026-04-16 12:16 41.66141 65.35843 34978 ft 523 kts 104°
2026-04-16 12:16 41.64839 65.45422 34982 ft 523 kts 104°
2026-04-16 12:17 41.63530 65.54993 34980 ft 523 kts 104°
2026-04-16 12:17 41.62212 65.64567 34979 ft 523 kts 104°
2026-04-16 12:18 41.60884 65.74111 34974 ft 522 kts 104°
2026-04-16 12:18 41.59516 65.83645 34969 ft 523 kts 104°
2026-04-16 12:19 41.58146 65.93204 34969 ft 524 kts 104°
2026-04-16 12:19 41.56785 66.02756 34973 ft 524 kts 104°
2026-04-16 12:20 41.55422 66.12309 34975 ft 524 kts 104°
2026-04-16 12:20 41.54059 66.21799 34975 ft 524 kts 104°
2026-04-16 12:21 41.52678 66.31350 34975 ft 524 kts 104°
2026-04-16 12:21 41.51290 66.40893 34975 ft 525 kts 104°
2026-04-16 12:22 41.49892 66.50450 34973 ft 525 kts 105°
2026-04-16 12:22 41.48483 66.60007 34985 ft 525 kts 105°
2026-04-16 12:23 41.47071 66.69562 34991 ft 525 kts 105°
2026-04-16 12:23 41.45679 66.79114 34976 ft 525 kts 104°
2026-04-16 12:24 41.44298 66.88614 34982 ft 525 kts 104°
2026-04-16 12:24 41.42903 66.98169 34985 ft 525 kts 105°
2026-04-16 12:25 41.41498 67.07716 34992 ft 525 kts 105°
2026-04-16 12:25 41.40086 67.17259 34994 ft 525 kts 105°
2026-04-16 12:26 41.38666 67.26793 34996 ft 525 kts 105°
2026-04-16 12:26 41.37237 67.36322 35012 ft 524 kts 105°
2026-04-16 12:27 41.35802 67.45840 34999 ft 524 kts 105°
2026-04-16 12:27 41.34357 67.55361 35008 ft 525 kts 105°
2026-04-16 12:28 41.33633 67.60117 34820 ft 523 kts 105°
2026-04-16 12:28 41.32912 67.64844 34367 ft 520 kts 105°
2026-04-16 12:28 41.32197 67.69486 33718 ft 519 kts 105°
2026-04-16 12:28 41.31458 67.74176 33047 ft 519 kts 106°
2026-04-16 12:29 41.30713 67.78885 32427 ft 520 kts 106°
2026-04-16 12:29 41.29972 67.83596 31830 ft 521 kts 106°
2026-04-16 12:29 41.29232 67.88322 31219 ft 522 kts 106°
2026-04-16 12:29 41.28616 67.93096 30610 ft 527 kts 99°
2026-04-16 12:30 41.28555 67.97998 29897 ft 534 kts 89°
2026-04-16 12:30 41.28961 68.02919 29083 ft 537 kts 84°
2026-04-16 12:30 41.29572 68.07794 28305 ft 533 kts 82°
2026-04-16 12:30 41.30225 68.12611 27556 ft 526 kts 82°
2026-04-16 12:31 41.30843 68.17383 26807 ft 520 kts 83°
2026-04-16 12:31 41.31406 68.22104 26098 ft 514 kts 84°
2026-04-16 12:31 41.31918 68.26728 25404 ft 509 kts 84°
2026-04-16 12:31 41.32406 68.31361 24691 ft 503 kts 85°
2026-04-16 12:32 41.32877 68.35962 24005 ft 498 kts 85°
2026-04-16 12:32 41.33337 68.40507 23271 ft 494 kts 85°
2026-04-16 12:32 41.33791 68.45007 22517 ft 488 kts 85°
2026-04-16 12:32 41.34238 68.49448 21821 ft 481 kts 85°
2026-04-16 12:33 41.34682 68.53838 21136 ft 476 kts 85°
2026-04-16 12:33 41.35120 68.58179 20479 ft 471 kts 85°
2026-04-16 12:33 41.35554 68.62482 19839 ft 466 kts 85°
2026-04-16 12:33 41.35980 68.66732 19188 ft 461 kts 85°
2026-04-16 12:34 41.36342 68.70939 18550 ft 454 kts 90°
2026-04-16 12:34 41.36253 68.75079 17835 ft 442 kts 104°
2026-04-16 12:34 41.35370 68.78895 17167 ft 422 kts 123°
2026-04-16 12:34 41.33741 68.82013 16554 ft 402 kts 141°
2026-04-16 12:35 41.31673 68.84333 16005 ft 389 kts 152°
2026-04-16 12:35 41.29456 68.86344 15457 ft 386 kts 150°
2026-04-16 12:35 41.27419 68.88695 14909 ft 388 kts 142°
2026-04-16 12:35 41.25572 68.91311 14342 ft 388 kts 138°
2026-04-16 12:36 41.23821 68.94024 13781 ft 385 kts 137°
2026-04-16 12:36 41.22121 68.96744 13181 ft 381 kts 136°
2026-04-16 12:36 41.20440 68.99447 12614 ft 378 kts 136°
2026-04-16 12:36 41.18765 69.02132 12076 ft 376 kts 136°
2026-04-16 12:37 41.17095 69.04792 11505 ft 374 kts 135°
2026-04-16 12:37 41.15468 69.07479 11073 ft 375 kts 130°
2026-04-16 12:37 41.14257 69.10513 10907 ft 369 kts 113°
2026-04-16 12:37 41.13848 69.13809 10791 ft 358 kts 92°
2026-04-16 12:38 41.14049 69.17032 10661 ft 343 kts 84°
2026-04-16 12:38 41.14434 69.20090 10523 ft 329 kts 82°
2026-04-16 12:38 41.14838 69.23021 10349 ft 320 kts 82°
2026-04-16 12:38 41.15227 69.25925 9897 ft 320 kts 82°
2026-04-16 12:39 41.15604 69.28847 9289 ft 321 kts 81°
2026-04-16 12:39 41.15963 69.31776 8706 ft 323 kts 82°
2026-04-16 12:39 41.16298 69.34738 8165 ft 324 kts 83°
2026-04-16 12:39 41.16628 69.37693 7636 ft 323 kts 83°
2026-04-16 12:40 41.16953 69.40591 7130 ft 310 kts 82°
2026-04-16 12:40 41.17266 69.43359 6668 ft 296 kts 83°
2026-04-16 12:40 41.17562 69.46003 6219 ft 285 kts 83°
2026-04-16 12:40 41.17905 69.48567 5779 ft 279 kts 75°
2026-04-16 12:41 41.18751 69.50865 5392 ft 280 kts 50°
2026-04-16 12:41 41.20296 69.52366 5001 ft 277 kts 18°
2026-04-16 12:41 41.22173 69.52701 4628 ft 272 kts 356°
2026-04-16 12:41 41.24017 69.52457 4355 ft 266 kts 349°
2026-04-16 12:42 41.25749 69.51803 4297 ft 255 kts 331°
2026-04-16 12:42 41.27113 69.50379 4294 ft 249 kts 304°
2026-04-16 12:42 41.27821 69.48322 4277 ft 245 kts 277°
2026-04-16 12:42 41.27867 69.46106 3954 ft 230 kts 261°
2026-04-16 12:43 41.27630 69.44122 3623 ft 205 kts 256°
2026-04-16 12:43 41.27391 69.42320 3357 ft 191 kts 258°
2026-04-16 12:43 41.27214 69.40674 3058 ft 171 kts 258°
2026-04-16 12:43 41.27048 69.39123 2844 ft 168 kts 257°
2026-04-16 12:44 41.26881 69.37595 2629 ft 166 kts 257°
2026-04-16 12:44 41.26714 69.36077 2397 ft 166 kts 257°
2026-04-16 12:44 41.26550 69.34567 2155 ft 164 kts 256°
2026-04-16 12:44 41.26384 69.33057 1930 ft 166 kts 256°
2026-04-16 12:45 41.26215 69.31532 1708 ft 167 kts 256°
2026-04-16 12:45 41.26056 69.30011 1450 ft 166 kts 257°